BREEZE-M R/B, 42909

Orbit data source: Space-Track

BREEZE-M R/B, 42909 is space debris in GEO originally from a launch on Wed, 16 Aug 2017 UTC launched from the Tyuratam Missile And Space Complex (TTMTR). Debris objects in space refer to the collection of defunct objects orbiting the Earth. Examples of debris include non-operational satellites, rocket bodies, and fragments generated from explosions, collisions, or faulty payload assembly.

Loading next visibility...
BREEZE-M R/B details
Identifier
42909, 2017-046C
Orbit
GEO
Last TLE update2 days ago
Origin
Flag of CISKhrunichev (CIS)
ManufacturerKhrunichev
MissionSpacecraft
Bus & MotorBRIZ, Unknown motor
Mass~1,600 kg wet, 1,600 kg dry
Launch date (UTC)
2017-08-16 (7 years ago)
Launch vehicleUnknown
Launch site
Tyuratam Missile And Space Complex (TTMTR)
Object type
Payload
Rocket body
Debris
Shape & HBRCyl, 4 m
Radar Cross Section14.451 m²

Expand to show TLE details & history

TLE from 2 days ago
0 BREEZE-M R/B
1 42909U 17046C   24359.84963589 -.00000124  00000-0  00000-0 0  9995
2 42909   7.1617  73.7407 0739423 148.7390 215.6725  0.90332368 24284
Epoch: 2024-12-24T20:23Z
Definitive object data (Epoch: 2024-12-24T20:23:28.54Z)
Latitude-0.00002°
Longitude33.86968°
Altitude41,624.293 km
Speed2.791 km/s
True Right ascension04h 54m 21s
True Declination0° 00' 00"
Sunlit
Object was in daylight at TLE epoch
Visualization TLE readout
Latitude-5.1247°
Longitude-11.5098°
Altitude42,038.13 km
Speed2.765 km/s
Apparent Right ascension02h 15m 40s
Apparent Declination-10° 07' 31"
Sunlit
Object is in daylight
Visualization observer readout
Local Sidereal Time21:02:26
Azimuth105.25° ESE
Elevation2.302°
Doppler factor1
Orbital elements
Apogee altitude42,168.969 km
Perigee altitude35,483.908 km
Semi-major axis45,204.576 km
Eccentricity0.0739423
Inclination7.1617°
RAAN73.7407°
Arg. of periapsis148.739°
True anomaly211.08218°
Mean anomaly215.6725°
Eccentric anomaly213.34381°
Mean motion0.22582 °/min
BSTARUnknown
Orbital period1594.16 mins
Loading historical data...
42909 neighbors
Authenticating...
Loading maneuver chart data...
Loading historical data...
Loading historical data...
Loading historical data...
Loading historical data...
Loading historical data...
Loading historical data...
Loading historical data...
Other satellites on launch #46 in the year 2017 (2017-08-16 UTC)

BREEZE-M R/B Visibility forecast

Observer location: undefined°, undefined

Span
Click to sort rows by Start time (UTC) header in descending order
Start Az.
Max El. time (UTC)
Max El. Az.
Max El.
End time (UTC)
End Az.
1298 mins2024-12-27 00:01:24.483Z108.558° ESE2024-12-27 08:26:24.483Z114.934° SE26.149°2024-12-27 21:39:24.483Z131.657° SE
|